Terminal Aerodrome Forecast
Issued by NWS Mobile, AL

Current Version | Previous Version | Text Only | Print | Product List | Glossary On
Versions: 1 2 3 4 5 6 7 8 9 10 11 12 13 14 15 16 17 18 19 20 21 22 23 24 25 26 27 28 29 30 31 32 33 34 35 36 37 38 39 40 41 42 43 44 45 46 47 48
000
FTUS44 KMOB 040526
TAFMOB
TAF
KMOB 040526Z 0406/0506 15011KT 4SM BR OVC002
     FM040800 15006KT 1/4SM FG OVC004
     FM041500 18011KT 4SM BR OVC007
     FM042100 17011KT P6SM BKN025
     FM050400 16005KT 2SM BR OVC003=

USA.gov is the U.S. government's official web portal to all federal, state and local government web resources and services.